Location: Winthrop
(48.4780°N, 120.1850°W)
Time: 18:22:18
(UTC-08:00)

Envisat - Pass Details

Date: 04 December 2022
Orbit: 763 x 765 km, 98.2° (Epoch: 05 February)

Event Time Altitude Azimuth Distance (km) Brightness Sun altitude
Rises 17:02:46 0° 226° (SW) 3,221 7.8 -9.0°
Reaches altitude 10° 17:07:37 10° 267° (W) 2,304 6.8 -9.7°
Maximum altitude 17:08:21 10° 276° (W) 2,286 6.5 -9.8°
Drops below altitude 10° 17:09:05 10° 284° (WNW) 2,307 6.3 -9.9°
Sets 17:13:58 0° 326° (NW) 3,243 6.4 -10.7°
